RH
1 2 2 3 3 3 3 3 6 7 8 9 7 6 6 7 8 11 13 18 30 30 22 22 22 19 17 16 16 23 28 37 44 44 51 60 66 66 60 68 71 57 57 64 62 55 54 55 52 49 44 40 38 37 34 31 32 34 33 31 28 25 26 28 28 26 23 20 20 20 19 19 18 18 17 17 15 13 8 1 0 0 1 5 7 8 11 18 22 22 23 23 23 24 24 23 23
1 2 2 2 3 2 4 3 8 12 13 12 7 6 6 8 10 16 24 28 33 32 26 22 19 17 18 18 16 17 23 28 28 33 43 55 68 68 62 63 62 56 56 62 65 60 57 57 55 52 49 44 41 39 36 32 33 35 34 30 27 25 26 29 30 28 23 21 20 20 20 19 20 20 19 19 18 14 11 5 0 0 1 3 7 8 10 16 21 22 22 23 24 25 24 23 23
1 2 2 2 2 2 6 5 7 13 16 12 5 6 6 11 16 19 30 31 28 29 27 23 19 17 19 22 21 19 25 28 24 29 36 50 65 63 62 64 61 60 57 59 62 60 59 60 60 57 54 49 44 41 38 35 35 36 35 31 27 25 27 29 30 28 24 23 21 19 18 18 18 19 19 21 21 16 12 7 2 0 0 1 6 9 10 14 19 22 22 22 24 25 24 23 23
1 1 1 2 2 2 7 7 8 13 14 8 4 8 7 15 22 22 28 27 24 24 23 23 21 20 23 25 25 21 19 21 23 25 28 44 60 61 66 71 69 63 58 61 64 60 59 64 66 63 59 53 47 42 39 37 36 36 36 32 28 27 28 30 29 26 25 24 21 19 17 16 15 16 19 21 23 21 14 8 5 4 1 1 5 10 12 13 18 22 22 22 23 25 24 23 23
2 2 1 2 3 3 6 7 9 11 9 5 5 9 8 16 25 25 25 24 24 21 21 21 19 21 24 23 22 22 22 20 19 21 27 39 55 60 62 68 66 60 62 68 69 66 64 70 72 69 62 55 47 42 40 38 37 37 37 34 29 29 30 30 27 25 25 23 22 22 20 18 17 18 20 24 25 25 18 7 6 8 4 3 4 11 14 13 17 21 22 22 23 24 24 23 23
4 3 2 2 5 6 7 7 7 8 5 4 5 5 10 23 25 24 25 24 24 22 23 22 22 26 27 25 21 21 26 28 25 25 30 39 54 60 54 59 62 60 66 70 73 74 73 77 77 71 63 54 46 42 41 39 38 38 38 36 31 31 31 28 26 27 26 24 24 24 24 22 21 22 24 28 31 30 24 10 7 10 8 7 6 9 14 14 17 21 22 22 22 24 24 23 23
6 5 4 3 7 10 10 10 8 8 5 5 6 3 12 24 20 19 24 22 21 22 24 24 25 26 29 30 29 28 29 34 35 32 35 45 61 66 55 54 57 58 64 71 80 82 81 82 78 70 61 52 45 42 42 41 40 40 39 37 34 31 29 28 30 31 28 25 25 26 28 27 27 28 30 34 38 36 31 17 10 14 13 14 12 9 11 14 16 19 22 22 21 22 24 23 22
6 7 6 6 10 11 12 11 8 7 5 5 7 7 11 16 14 18 22 19 18 22 24 22 21 21 29 32 32 36 31 32 37 35 37 47 61 66 59 53 52 57 66 78 86 85 82 80 73 65 56 49 45 43 44 43 41 40 39 36 34 31 30 33 35 33 30 27 27 28 30 32 33 37 39 43 46 44 39 25 13 14 16 19 20 14 10 11 14 16 20 22 22 22 22 23 22
6 8 7 9 12 11 11 9 6 6 6 7 8 10 10 11 14 16 19 18 15 19 20 23 28 27 35 37 34 38 34 36 38 36 39 46 56 63 61 54 54 65 75 85 88 83 78 73 66 58 52 48 46 46 46 45 42 40 39 38 36 34 36 38 37 34 31 29 28 28 30 36 41 46 51 55 58 55 48 35 21 16 17 22 26 23 15 9 10 13 17 19 21 22 22 22 22
6 9 10 12 14 13 10 8 8 9 9 11 10 10 10 11 13 15 17 18 15 18 18 24 36 36 40 43 40 42 39 41 40 36 42 47 55 66 64 55 59 73 84 90 87 82 77 71 63 55 51 49 48 48 48 46 43 41 41 41 39 37 40 39 37 34 31 28 27 27 28 36 47 57 64 68 70 68 61 48 35 26 22 22 24 27 24 16 9 8 12 16 19 21 22 22 21
8 10 13 15 17 15 12 12 12 12 13 13 11 9 10 10 12 14 13 15 14 15 15 20 34 38 40 40 40 47 44 43 42 40 45 47 55 70 67 57 63 76 88 91 87 84 78 73 67 60 56 53 53 51 49 48 45 45 44 43 41 40 41 40 36 33 29 27 26 26 28 35 49 63 72 75 76 76 73 64 54 45 37 29 24 23 23 21 15 9 8 11 15 18 21 22 22
11 12 14 16 17 16 14 16 15 13 14 13 12 10 10 11 11 12 11 12 11 12 14 18 27 30 35 39 40 47 47 45 45 47 49 48 55 66 65 58 58 71 85 86 85 86 81 78 73 66 61 58 56 53 51 50 49 49 48 45 42 39 39 37 34 31 29 29 29 29 30 34 45 55 62 65 68 70 72 70 67 62 57 50 41 32 23 19 16 13 10 9 11 15 18 21 22
12 14 14 14 16 16 14 17 15 13 14 12 12 10 10 10 10 11 9 11 10 12 14 18 24 22 30 43 46 48 47 45 49 53 50 52 58 61 62 59 54 66 79 77 80 85 83 79 74 71 67 64 61 59 57 56 57 55 51 45 40 40 40 36 31 29 29 31 32 32 31 33 38 44 49 54 58 60 59 61 63 62 61 60 58 52 42 32 24 18 15 12 10 12 16 19 22
15 17 16 15 17 17 14 15 15 14 14 12 12 11 11 11 11 11 10 11 10 11 11 17 22 22 31 41 46 51 48 46 51 53 51 56 62 63 66 61 57 66 72 72 76 82 82 75 71 72 72 71 69 68 66 64 63 56 50 49 51 51 43 34 27 27 30 31 33 34 34 34 35 41 52 62 66 64 58 55 55 53 50 51 55 57 56 51 46 36 24 18 15 13 15 17 20
18 20 19 18 18 17 13 13 15 15 14 13 12 11 12 12 12 12 12 11 11 10 8 13 17 26 42 45 46 51 49 49 51 52 52 56 60 65 70 67 65 68 69 71 73 75 75 69 66 70 74 76 76 74 71 66 58 51 50 55 60 53 39 32 27 26 30 32 35 38 39 41 41 47 58 68 75 73 65 60 56 54 50 48 48 49 50 51 55 54 39 26 23 19 17 17 19
18 20 19 19 17 16 13 13 15 14 14 14 13 12 12 12 12 13 14 12 13 12 13 21 23 31 46 48 47 48 46 48 52 54 53 54 55 55 60 65 67 63 64 69 69 69 67 65 65 68 74 76 74 71 68 62 54 51 52 53 54 45 32 30 31 32 33 35 40 43 45 49 50 53 59 68 78 76 70 68 63 62 60 56 50 43 42 42 48 57 50 35 29 28 23 19 18
17 18 19 17 15 14 12 15 16 13 13 14 14 13 13 13 14 14 14 15 16 14 18 29 32 37 44 45 45 45 44 46 53 54 53 53 47 44 48 52 56 59 65 68 68 66 61 59 61 65 69 67 63 61 62 58 55 56 50 45 45 39 32 33 39 40 36 39 46 48 50 54 55 57 60 66 76 76 74 74 68 63 60 59 58 48 40 39 44 55 57 42 35 35 31 26 22
15 17 18 13 10 10 11 16 16 15 15 13 14 14 13 15 15 15 15 16 16 15 21 28 31 38 43 42 42 42 41 44 48 48 51 52 43 46 51 52 62 73 73 67 67 66 60 55 54 59 62 57 54 57 60 55 54 57 49 43 41 36 40 47 50 48 41 39 44 52 52 53 57 60 64 69 74 76 77 80 77 67 58 55 57 54 46 44 49 56 58 48 40 42 38 30 28
15 15 15 9 8 10 12 16 17 16 15 13 13 14 14 15 15 15 15 16 17 19 25 30 29 33 36 35 35 35 35 37 38 42 51 50 48 53 59 66 74 77 72 65 65 63 57 52 53 58 59 58 58 61 63 56 52 56 52 51 49 43 50 57 54 53 49 40 40 54 57 54 59 63 72 76 76 75 74 78 83 78 64 53 50 50 47 45 49 52 52 47 40 44 44 32 29
15 15 12 8 9 10 12 14 15 15 15 13 13 13 15 16 16 17 17 19 22 23 24 28 29 31 35 32 30 30 28 28 29 39 49 49 52 55 64 77 76 70 66 64 62 57 50 48 51 55 56 59 60 61 59 53 51 56 56 56 53 46 49 54 55 55 55 49 47 56 57 53 57 64 69 69 69 70 68 71 77 78 70 60 55 51 48 47 46 44 39 32 28 36 45 37 28
17 16 11 10 13 13 12 14 15 15 14 14 13 14 15 15 16 17 21 24 24 25 22 21 26 31 37 36 33 29 27 27 25 34 45 48 51 53 64 80 80 66 51 50 57 54 47 47 52 53 56 59 55 48 46 46 47 53 56 52 48 48 50 52 54 54 56 58 59 63 61 56 57 61 64 63 68 69 65 68 70 69 68 65 64 58 55 54 51 47 33 15 14 27 42 41 31
16 16 13 14 17 16 13 14 15 14 13 13 13 14 14 15 14 15 21 24 21 22 20 23 29 32 37 40 37 34 32 31 28 32 41 46 49 52 60 73 76 56 37 41 51 49 44 46 50 54 57 58 53 42 40 44 43 48 54 50 50 56 53 47 47 49 54 62 66 68 64 60 59 59 63 66 72 71 61 62 63 62 65 64 64 62 60 57 52 52 40 18 12 24 40 42 30
15 15 15 15 16 15 13 14 15 14 13 13 13 13 14 14 14 15 18 19 18 19 19 26 35 37 39 40 42 41 37 36 35 36 39 43 46 51 56 63 67 54 44 47 48 43 41 45 51 58 62 60 61 55 52 57 57 61 63 53 47 47 45 39 38 42 52 62 67 66 60 58 56 54 61 63 67 73 64 58 59 63 65 58 57 61 61 57 52 53 49 34 21 22 32 36 30
15 14 14 14 15 14 13 14 15 14 13 13 13 13 13 13 13 14 15 17 21 23 21 25 33 41 44 43 47 46 43 44 45 43 42 39 40 48 55 60 60 51 46 47 47 42 41 49 56 64 66 58 56 50 50 61 64 64 60 46 28 23 32 37 38 42 54 62 59 58 52 51 57 57 58 55 56 68 68 66 69 71 72 63 57 56 50 48 50 52 52 49 42 33 27 25 25
15 14 13 13 14 13 13 14 14 13 13 13 13 13 12 12 12 12 14 18 22 23 21 22 28 39 44 42 44 45 47 51 52 51 46 38 35 41 50 54 51 44 41 43 47 46 50 57 53 55 56 47 41 32 34 42 47 48 46 43 29 21 33 39 39 39 48 58 54 51 43 41 56 61 54 48 52 64 68 72 70 61 62 59 51 47 44 46 51 52 53 55 56 52 43 31 23
14 13 13 12 13 13 13 13 13 13 13 12 13 12 11 12 13 14 14 17 23 24 24 26 31 39 40 37 38 42 49 53 56 54 48 42 33 31 40 43 42 40 38 44 54 55 54 51 44 44 40 35 34 29 29 24 26 33 37 46 47 41 43 39 37 37 44 55 54 51 44 43 57 59 50 44 44 55 64 66 59 45 44 44 39 42 50 51 50 52 54 54 56 59 61 54 41
12 13 14 13 13 13 13 13 12 13 12 12 11 10 11 13 15 14 14 20 29 32 34 36 38 42 39 37 41 45 47 47 51 52 47 41 30 29 34 32 30 30 34 48 59 57 52 49 51 48 33 26 26 26 31 22 14 20 32 50 52 45 45 39 35 39 45 52 54 56 53 54 62 56 46 40 38 50 61 62 60 53 50 48 42 46 52 50 50 53 54 57 59 61 66 66 58
13 14 14 13 13 12 13 13 13 13 11 11 11 10 12 13 15 14 15 28 36 33 35 36 36 39 37 38 43 45 46 44 47 48 44 37 30 31 31 28 25 29 47 59 56 55 56 56 57 50 35 27 22 20 27 22 12 13 23 38 36 30 37 40 36 38 42 45 51 58 59 60 62 56 46 40 42 55 64 66 68 63 55 51 47 51 54 52 55 60 60 61 62 63 67 68 64
14 13 13 13 13 12 13 13 13 13 11 11 12 12 12 12 14 13 17 32 38 33 34 33 32 36 38 37 36 37 43 48 53 52 49 43 38 34 30 37 40 44 65 64 53 59 57 52 48 40 32 25 19 17 19 17 16 16 16 20 19 16 23 30 30 34 40 45 50 57 61 60 55 50 47 46 48 56 65 68 69 60 51 51 54 59 60 59 63 65 69 69 67 67 71 72 71
15 13 13 13 13 12 12 12 13 13 11 11 12 13 12 12 13 13 18 29 32 31 33 33 34 38 39 36 31 31 43 59 65 60 58 52 46 41 37 49 56 60 68 52 48 60 50 39 35 27 23 19 17 19 18 18 19 18 17 16 16 15 17 18 17 25 35 41 50 58 60 58 56 50 45 49 49 49 61 71 69 59 54 59 65 66 63 66 69 68 74 77 75 75 76 80 83
17 14 13 12 12 11 10 11 11 12 11 11 12 13 12 11 12 15 20 25 25 26 31 36 39 40 39 35 29 30 45 67 73 64 62 58 50 48 49 57 59 61 67 48 39 48 37 27 24 20 21 19 19 20 20 22 21 20 21 19 19 17 16 16 16 21 24 26 39 54 57 53 56 53 48 54 51 40 49 67 73 68 68 72 71 67 63 68 73 70 75 78 76 76 77 83 88
17 16 15 14 13 11 11 10 10 11 12 11 12 13 12 12 13 15 18 20 23 26 28 35 40 39 38 35 30 29 36 51 62 60 60 56 48 48 53 62 58 56 65 51 37 38 29 22 22 22 22 21 22 23 23 24 23 24 24 23 24 20 18 18 18 19 19 25 43 58 60 58 57 56 55 56 52 45 48 62 72 72 76 76 68 65 64 64 66 68 74 75 73 72 73 77 83
18 17 17 16 16 14 13 12 11 12 13 12 13 13 12 13 13 15 18 21 26 27 27 33 39 38 37 34 30 29 29 33 43 47 49 49 46 46 50 55 53 51 52 44 40 36 25 21 24 23 23 24 25 25 26 25 25 26 24 25 27 23 21 18 20 31 34 37 52 62 65 67 63 62 60 47 42 53 61 63 65 65 69 70 64 65 66 61 56 58 65 71 73 68 66 73 80
18 18 19 19 18 17 16 15 14 12 13 13 13 13 13 12 14 19 23 26 27 27 28 33 38 40 38 35 30 29 29 30 33 34 36 39 38 38 40 43 45 43 36 37 44 35 22 23 25 24 25 25 27 28 27 25 25 26 25 29 29 24 20 15 24 43 44 38 44 50 58 66 61 58 61 50 44 58 66 59 54 57 62 66 66 63 60 60 57 52 51 57 63 60 60 69 76
18 21 25 25 22 19 18 17 16 13 12 13 13 13 13 12 18 25 27 27 27 26 28 31 39 45 42 37 32 30 31 31 31 31 31 32 30 31 34 37 38 34 30 38 44 31 21 24 25 24 24 23 27 29 27 25 26 26 27 31 30 26 19 13 19 30 39 48 47 42 47 53 52 52 53 51 51 61 66 57 49 52 55 58 60 55 53 61 65 61 54 50 49 49 55 66 75
19 24 28 27 25 22 19 16 14 13 13 12 12 13 12 15 24 30 27 26 24 23 25 25 35 48 45 38 34 31 32 33 33 34 36 35 33 34 34 33 34 34 37 42 43 29 20 24 25 24 23 24 28 29 28 28 27 25 26 28 27 25 20 13 13 17 31 46 45 48 53 44 44 53 54 55 60 63 64 56 51 51 48 46 47 47 49 57 64 60 53 52 47 41 46 59 73
23 27 28 26 26 22 17 15 12 12 13 13 13 13 13 17 27 29 25 23 20 20 22 21 28 42 43 38 34 32 34 38 37 34 35 36 37 37 33 29 30 34 40 46 45 30 21 26 27 23 23 24 28 30 30 30 28 26 26 28 27 23 19 14 11 13 21 26 28 45 58 52 50 56 61 68 72 68 63 58 57 56 51 49 49 49 49 51 54 48 44 56 54 38 40 60 77
27 28 26 25 25 21 17 15 12 12 13 13 14 14 14 18 23 24 21 21 19 19 20 18 24 35 38 36 35 35 38 40 38 34 32 33 36 37 33 30 30 32 35 41 44 31 23 29 28 24 24 26 30 31 31 32 30 29 28 30 31 25 19 14 11 10 15 20 22 28 40 49 54 58 62 67 67 64 61 57 54 52 52 58 61 58 53 48 45 36 36 49 49 37 42 63 78
27 26 24 24 23 20 17 15 12 12 13 13 15 15 16 17 19 20 19 19 18 18 18 17 23 32 36 37 36 38 42 40 36 35 36 36 38 39 39 39 37 35 33 36 40 34 28 31 29 25 24 27 32 32 33 34 31 30 31 33 36 30 21 15 11 9 10 15 18 19 22 29 37 44 49 51 49 47 45 41 37 35 40 49 56 55 51 48 44 34 31 40 48 52 53 61 70
26 23 22 23 22 19 17 16 14 14 13 14 15 16 17 17 17 18 19 19 18 17 17 17 21 26 29 29 28 34 41 41 38 38 42 45 46 47 46 45 43 41 38 36 39 37 32 33 31 27 26 29 34 34 35 36 32 32 33 38 40 33 25 18 11 8 9 11 13 15 15 16 19 22 24 25 25 24 21 20 18 17 21 26 34 39 39 42 44 36 31 37 49 58 58 61 70
23 21 19 20 21 19 17 19 19 17 17 18 17 17 17 15 17 18 18 18 18 17 17 19 21 22 23 23 25 32 34 37 43 44 46 46 46 48 49 44 42 44 43 41 42 39 34 35 32 29 29 31 35 36 37 37 35 34 35 42 45 37 29 22 13 7 7 10 12 13 13 14 15 14 14 14 14 13 13 13 12 12 12 13 15 20 20 23 29 28 29 35 43 49 51 59 71
22 20 17 17 21 20 18 20 22 21 21 20 19 22 22 16 16 18 18 18 18 18 18 19 21 20 24 28 31 35 34 38 46 45 43 43 43 49 53 47 40 41 44 46 49 43 36 37 36 34 32 32 35 39 39 38 38 37 38 43 48 43 33 25 17 9 6 9 12 14 13 13 13 13 14 13 13 14 14 15 15 14 13 12 12 12 13 13 13 13 17 27 38 45 48 54 66
21 20 18 21 25 24 21 19 21 22 23 23 22 26 27 20 16 17 19 19 18 18 17 18 19 18 25 33 34 34 34 37 46 51 51 48 46 49 54 52 45 45 49 54 56 48 40 40 40 38 35 32 37 41 41 40 40 39 40 45 51 48 38 31 23 11 7 8 11 14 14 14 14 14 15 15 15 15 15 16 15 15 14 14 15 14 14 13 12 15 22 32 38 42 45 47 50
20 18 20 24 24 23 22 21 22 22 22 24 24 25 26 22 19 18 18 20 20 19 18 18 19 17 21 29 29 27 26 26 36 49 50 46 48 49 49 52 52 52 57 60 59 54 50 49 46 42 37 33 38 45 44 42 42 42 42 47 55 54 42 35 28 14 8 8 10 12 13 13 13 15 18 16 15 15 15 16 15 15 15 15 15 13 12 11 12 22 33 37 36 34 36 38 42
19 17 19 22 23 25 23 22 24 23 22 24 23 24 28 26 21 19 20 20 20 20 19 19 19 18 20 23 23 23 24 24 30 38 40 42 49 49 46 51 55 57 60 61 60 60 59 58 53 46 40 35 37 46 49 45 44 44 45 49 58 58 46 39 33 18 10 8 8 9 10 12 12 15 16 13 13 15 15 17 17 16 15 14 14 12 11 9 9 14 19 23 27 27 29 36 45
20 19 21 23 25 26 23 23 25 24 23 23 21 23 28 30 23 20 21 20 19 20 19 19 19 19 21 22 23 25 26 28 33 37 40 46 49 48 51 55 58 58 60 62 64 64 62 61 60 55 51 44 38 46 54 51 49 48 49 54 62 60 49 44 38 25 15 10 8 8 8 9 10 10 10 10 11 13 15 17 18 18 17 16 16 15 14 13 11 11 11 14 21 23 24 29 33
21 21 22 22 24 24 23 24 23 26 31 25 20 23 27 30 26 20 20 20 20 20 20 20 19 19 22 23 23 27 31 35 40 42 45 52 52 52 57 60 59 60 63 65 65 64 63 61 60 59 60 57 47 49 59 60 56 54 54 60 66 63 54 47 42 32 22 14 9 9 8 8 9 9 8 9 10 12 14 16 17 18 19 18 18 18 17 16 15 14 14 15 16 17 18 19 18
20 22 22 21 23 22 22 23 20 31 41 28 22 26 26 29 26 21 21 21 21 21 20 21 20 20 22 23 24 28 36 40 42 42 42 48 52 53 57 60 62 63 66 64 57 56 60 60 59 59 61 64 58 55 63 68 63 58 58 64 69 66 57 50 44 36 26 18 13 10 9 9 9 10 9 9 10 11 12 14 15 16 17 17 17 17 16 16 16 16 16 17 17 17 18 17 17
18 22 23 22 23 23 31 39 32 34 37 27 26 29 27 28 26 22 24 23 22 22 21 21 21 22 23 23 25 28 33 35 34 36 38 41 50 55 55 56 58 60 62 62 55 49 49 50 53 56 60 64 64 62 69 74 69 61 61 68 73 68 58 51 44 36 28 21 17 14 11 11 11 11 12 11 11 12 12 13 13 14 14 14 14 14 14 14 14 14 14 15 15 15 15 15 16
17 20 21 22 27 32 46 56 45 37 34 26 28 31 29 30 27 26 26 24 23 22 22 23 22 24 25 25 28 29 30 31 32 34 34 36 45 52 50 48 50 51 53 59 60 51 43 41 46 56 65 68 68 69 77 78 68 63 65 72 77 71 58 49 41 35 30 23 20 17 13 12 13 13 14 14 14 14 15 15 14 15 14 14 13 13 13 12 12 12 11 11 11 11 11 11 11
16 18 18 19 23 28 40 47 42 40 36 27 27 30 31 32 29 29 27 24 25 23 23 25 24 25 27 28 31 31 31 33 35 38 38 40 46 49 49 48 47 49 52 56 57 52 49 52 57 63 67 70 70 72 79 77 64 63 70 75 79 74 60 49 41 36 32 26 24 21 16 15 16 17 17 19 21 23 24 24 24 24 23 23 23 22 22 21 20 19 19 19 19 19 19 19 18
15 16 16 17 18 19 25 31 32 33 34 31 30 28 28 30 30 30 28 26 25 23 23 25 25 26 27 29 32 34 34 35 39 45 47 48 49 46 44 41 38 38 41 46 55 62 66 70 71 68 67 70 72 72 76 75 66 67 75 80 82 75 62 52 45 39 34 30 29 26 21 20 21 23 25 28 33 37 40 41 41 41 41 41 41 41 41 41 40 40 41 41 42 42 43 43 42
16 16 15 16 17 18 22 28 29 29 34 34 27 23 25 27 28 30 30 29 27 26 26 27 27 28 27 29 32 33 35 37 40 44 46 45 42 37 34 30 27 26 27 35 50 62 70 74 74 76 77 78 78 76 74 74 75 76 78 82 84 75 62 55 51 45 39 34 34 32 28 26 26 30 34 39 43 46 47 48 47 48 50 50 51 51 51 51 51 52 51 52 52 52 53 53 54
16 15 15 15 17 19 22 27 32 35 42 40 26 22 26 26 28 31 30 30 29 28 29 29 30 32 32 33 34 36 37 38 39 41 41 40 35 30 26 23 22 22 22 25 31 44 62 74 79 83 83 79 80 81 77 79 85 81 75 80 85 76 61 57 58 52 44 38 36 36 35 35 34 36 40 44 46 48 49 49 49 49 49 50 51 51 51 52 52 53 53 53 53 52 52 52 52
16 15 15 15 16 18 17 22 30 35 44 44 28 22 25 26 29 32 29 29 28 27 28 28 30 31 32 33 34 36 37 35 34 34 34 35 32 26 20 18 20 20 20 23 30 48 67 75 81 85 82 79 82 83 80 84 86 81 79 82 85 79 65 59 63 60 52 47 42 38 37 38 39 41 45 48 48 48 48 47 48 48 48 48 49 50 51 52 52 53 53 53 54 54 55 55 54
16 16 16 15 15 16 14 17 24 29 39 46 38 31 29 29 31 29 28 28 27 27 27 26 28 29 29 29 30 31 31 29 28 29 29 29 26 21 17 18 19 19 22 25 32 46 54 57 63 70 71 75 82 82 77 80 84 84 86 87 85 83 71 62 64 65 62 60 53 45 42 41 40 39 41 43 46 48 49 48 47 46 46 47 47 48 50 52 54 56 57 59 60 60 59 60 60
18 16 16 16 16 16 16 18 20 24 37 47 48 43 35 32 33 29 28 30 29 28 29 28 29 28 27 28 28 28 28 28 30 30 29 25 22 19 19 20 20 19 22 25 27 33 37 40 43 51 65 73 73 68 63 69 81 84 84 84 84 85 78 67 66 68 68 68 63 56 52 49 46 43 41 40 41 43 44 46 47 46 46 46 47 47 48 51 55 58 60 64 67 68 68 67 66
19 16 17 18 18 18 21 26 24 24 30 35 42 46 40 35 34 29 28 30 29 30 31 31 31 30 30 30 28 29 30 31 32 32 31 26 22 19 19 22 22 20 21 23 25 28 30 34 37 44 61 65 53 50 57 69 78 78 77 81 83 84 81 73 70 72 71 70 70 67 62 56 51 49 47 45 46 47 45 45 47 47 47 46 46 47 47 50 54 56 59 61 65 69 72 74 75
Wind_Speed
10 10 9 9 10 11 10 10 9 9 8 9 9 13 13 9 11 14 12 5 4 5 7 11 8 8 10 13 11 8 7 5 5 4 4 6 10 13 14 13 12 11 9 8 8 10 11 11 11 12 13 13 12 10 10 10 10 10 8 7 7 8 7 7 6 5 4 3 2 2 2 2 3 2 2 3 3 4 6 11 16 18 19 20 23 25 26 27 28 29 28 27 26 26 25 25 24
10 10 10 9 9 10 10 10 8 10 10 10 12 13 9 9 13 9 6 7 7 4 4 9 10 10 7 8 10 7 6 5 5 6 3 2 7 11 15 16 14 12 9 8 8 9 11 12 12 12 13 13 12 11 11 11 11 10 8 8 8 8 8 7 6 5 4 3 3 2 3 3 4 4 3 3 3 5 7 9 15 19 20 21 23 25 26 27 29 29 29 28 27 26 26 25 25
9 9 10 9 9 10 9 10 9 10 9 10 15 14 9 10 7 3 10 10 5 3 2 5 8 10 6 3 5 8 8 7 8 9 8 1 5 9 15 17 14 12 10 10 10 11 12 12 12 12 13 13 13 12 11 11 11 10 8 8 9 9 9 8 7 6 4 4 3 3 3 4 5 5 4 3 4 5 8 10 13 18 21 21 22 24 26 28 29 30 29 29 27 27 27 26 25
9 9 10 9 9 10 10 11 10 9 9 12 14 9 6 4 7 8 8 7 1 3 4 4 5 5 4 4 4 7 9 9 9 11 12 6 3 9 13 14 12 12 12 12 12 12 12 12 13 13 13 13 13 12 11 11 10 9 8 8 9 10 9 9 7 6 4 4 4 4 4 4 5 5 5 4 4 5 7 10 12 15 20 22 22 24 26 28 29 30 29 29 28 28 27 27 26
9 10 10 10 10 10 11 11 11 10 11 14 13 6 3 2 7 5 3 6 2 6 9 8 8 7 6 8 8 7 8 9 12 14 13 11 5 7 10 12 12 12 13 14 13 13 13 13 13 13 13 13 13 12 11 10 10 9 9 9 10 10 9 8 7 6 5 4 4 4 4 5 5 6 6 5 5 5 7 10 12 14 19 22 23 23 25 27 29 29 29 29 29 28 28 28 27
9 9 10 10 10 10 11 11 11 12 12 14 17 11 2 4 3 5 2 4 3 5 8 8 8 7 8 10 10 11 10 10 12 15 16 14 8 5 8 12 14 13 14 14 14 13 13 13 13 13 13 13 13 12 11 10 10 10 9 9 10 10 9 8 7 6 5 5 4 4 4 4 5 6 6 6 5 5 6 9 13 15 17 20 23 24 24 26 28 29 30 30 29 28 28 28 27
10 10 10 11 11 11 12 12 11 11 12 13 18 14 5 7 4 12 6 2 3 4 6 5 6 7 9 9 9 10 10 11 12 15 17 15 9 6 9 13 15 15 15 14 14 13 13 12 12 13 13 13 13 12 11 10 10 10 9 9 10 9 8 8 8 7 6 4 4 4 4 4 5 6 7 7 6 5 5 7 12 16 17 18 20 23 24 25 26 28 29 29 28 27 27 28 27
10 10 10 11 11 11 11 12 10 11 12 10 14 13 8 7 8 11 9 1 3 3 5 6 7 8 9 8 8 9 10 12 13 15 16 16 12 8 10 13 16 16 15 14 13 12 11 11 12 13 13 13 13 12 11 10 10 10 10 9 9 8 8 9 8 7 5 3 3 3 3 4 6 6 7 7 6 5 5 6 10 15 17 18 19 21 24 25 25 27 28 28 28 27 27 28 28
10 10 10 10 10 9 10 11 11 13 11 6 9 11 11 10 8 10 11 7 2 2 4 6 6 8 9 9 8 8 10 12 14 16 15 15 15 11 11 14 16 16 14 13 12 11 11 11 12 13 13 13 13 12 11 10 10 10 10 10 9 9 9 9 8 6 4 2 2 3 4 5 6 7 7 7 7 6 6 6 8 12 16 17 18 19 22 24 25 26 27 28 29 28 27 27 28
11 11 12 11 10 10 11 12 11 10 7 7 11 13 13 10 10 11 10 11 5 2 3 4 6 8 9 8 7 7 10 12 13 15 14 14 13 11 10 14 17 15 12 11 11 11 11 11 12 13 13 13 12 11 11 10 10 10 10 10 9 9 9 8 6 4 2 1 2 3 4 5 6 7 7 8 8 7 7 7 7 9 13 15 16 17 19 21 24 25 26 27 28 28 27 27 28
11 12 13 11 9 10 10 9 8 6 7 10 11 13 11 7 12 12 8 8 6 5 7 7 8 9 9 9 9 8 10 11 11 13 13 12 12 11 11 14 16 14 12 11 10 10 11 11 12 12 12 12 11 11 10 10 10 10 10 9 9 9 9 7 5 3 1 1 2 3 5 6 6 7 7 8 8 8 8 9 8 8 9 11 13 15 16 17 20 23 26 27 27 28 27 27 27
12 13 13 11 8 8 7 8 8 6 7 9 8 7 4 8 13 11 7 6 4 4 7 8 8 6 7 10 10 9 10 10 9 11 11 12 12 12 11 12 14 14 12 11 9 10 10 10 10 10 11 11 10 10 10 10 10 9 9 9 9 9 8 7 5 3 1 1 2 3 4 6 6 6 7 7 8 8 9 9 10 10 9 9 10 12 14 15 16 20 24 26 26 27 27 27 27
13 14 13 11 8 6 7 8 5 4 4 8 6 2 3 8 11 11 10 5 0 3 7 9 9 8 8 8 9 9 9 10 9 10 11 11 11 12 11 11 13 14 12 11 10 10 10 10 9 10 10 10 10 10 10 9 9 8 8 8 9 9 8 7 5 3 2 1 2 2 3 5 6 6 6 7 7 8 8 9 10 11 10 10 10 11 12 13 15 16 20 24 26 26 27 28 27
13 13 10 9 8 7 9 7 2 5 8 9 5 2 3 5 7 10 7 1 2 6 10 11 10 10 8 7 10 9 8 10 9 9 10 11 11 11 12 12 13 13 12 12 11 10 10 9 9 9 9 9 9 10 10 9 9 8 8 10 10 9 8 7 5 3 2 2 1 1 2 4 5 5 5 5 6 6 7 8 9 9 10 10 11 12 13 13 14 14 17 21 25 26 27 27 28
14 12 8 9 10 10 11 8 3 6 9 8 3 1 2 5 5 4 1 4 3 6 11 11 12 10 5 7 8 7 7 9 9 10 12 13 12 12 13 14 15 15 14 13 12 11 10 8 8 9 9 9 9 9 9 8 7 8 11 12 10 8 7 7 5 3 3 2 2 3 4 4 3 3 4 5 5 4 5 5 6 7 8 9 10 12 13 14 13 13 14 18 22 25 26 27 27
17 14 8 10 13 12 12 11 5 3 6 8 2 3 4 5 5 3 1 3 2 5 8 9 10 7 4 6 6 5 7 8 10 11 13 13 13 13 13 14 15 16 15 13 12 11 9 8 8 8 8 8 8 8 8 7 7 11 13 10 8 6 6 5 3 3 3 4 4 6 7 6 5 5 5 4 4 4 4 3 4 5 6 7 9 10 12 14 14 12 11 13 19 22 25 27 28
19 15 13 14 15 14 14 12 5 1 3 7 2 7 6 3 5 3 1 2 3 5 6 8 6 4 4 5 2 3 4 5 8 10 13 13 13 13 13 12 12 13 14 13 11 10 9 9 8 7 8 8 8 9 8 9 10 12 11 6 6 6 5 5 5 5 5 4 5 8 8 6 5 5 4 3 4 4 3 2 2 3 4 5 6 7 10 12 13 12 9 9 15 20 22 26 28
17 15 16 16 15 14 12 10 5 4 8 10 4 4 3 1 5 2 1 2 5 6 6 9 6 4 5 4 3 4 4 4 6 9 13 14 13 12 12 11 10 12 12 11 10 10 8 8 7 8 9 9 9 9 9 9 10 10 7 4 5 6 8 8 5 5 5 3 6 7 4 2 2 2 2 1 3 4 4 4 3 2 1 2 3 6 8 10 11 11 9 8 12 17 20 23 27
15 15 16 16 14 13 10 8 6 7 13 12 7 6 6 6 2 2 4 3 5 6 6 9 8 7 8 7 6 6 5 5 6 10 13 13 12 11 10 10 11 12 11 10 11 11 9 7 7 9 10 10 10 9 9 8 8 8 6 5 6 8 9 5 1 1 1 4 8 5 2 3 2 2 2 2 4 3 3 5 5 3 1 1 1 3 5 8 9 10 9 8 10 16 19 21 25
14 15 16 13 10 9 8 7 5 5 11 9 8 8 7 5 2 4 6 3 6 7 8 8 10 11 10 9 8 7 7 7 9 11 14 14 13 12 10 10 12 12 11 10 11 10 9 8 9 9 10 10 10 9 7 7 7 7 6 5 6 7 6 1 2 3 4 7 9 6 4 4 4 4 4 5 6 4 3 4 4 3 2 1 0 0 2 4 6 7 7 8 10 15 18 21 23
15 16 14 7 5 7 6 4 4 6 10 10 9 8 9 8 2 5 7 7 7 7 10 10 11 13 11 10 10 9 9 8 8 11 15 16 15 14 12 11 14 13 10 9 11 10 9 9 9 8 9 9 9 7 6 6 7 9 7 5 6 5 4 4 5 6 6 7 8 7 6 4 5 5 5 7 7 6 5 4 3 3 3 2 2 1 0 1 2 2 4 5 8 13 16 18 20
14 15 12 6 6 8 4 1 6 9 12 15 15 11 10 10 9 10 10 11 10 9 11 11 11 9 7 9 11 10 9 8 8 10 16 18 16 16 15 15 17 15 13 12 12 11 9 9 9 9 9 8 8 7 6 7 8 8 6 4 7 6 7 9 11 11 8 7 8 8 7 7 6 5 7 9 6 7 8 6 4 4 3 2 2 2 1 1 1 2 3 2 3 9 13 15 18
11 12 10 7 8 9 4 2 10 10 9 14 17 17 15 12 12 13 14 14 14 11 11 11 8 4 4 7 10 10 8 8 9 10 16 19 17 17 16 15 16 16 16 15 13 11 10 10 10 10 10 9 9 6 5 8 9 5 3 3 8 9 11 13 13 13 9 8 10 10 9 10 10 8 10 7 2 3 6 6 5 4 3 2 2 3 3 2 2 3 2 3 1 5 10 12 15
10 9 9 9 11 10 7 10 13 9 9 12 14 16 16 14 14 14 13 12 11 10 11 11 7 3 5 6 8 8 7 8 9 11 15 18 18 17 15 14 14 14 15 14 13 12 11 11 11 11 10 8 5 2 4 7 6 2 2 5 8 11 13 13 14 13 10 10 12 11 9 10 10 11 12 6 1 2 2 4 5 4 4 3 3 4 5 4 4 4 3 2 3 1 5 8 12
11 10 7 8 11 11 12 14 15 15 14 14 15 17 17 16 15 14 12 9 8 9 12 14 10 4 6 6 7 8 8 10 13 15 16 17 18 18 16 15 14 13 13 14 14 13 12 12 11 9 6 3 4 2 3 6 7 6 8 10 10 9 11 13 14 14 11 10 12 12 9 8 9 10 11 7 4 4 3 4 5 3 3 3 3 4 5 4 4 4 3 3 4 4 4 5 8
11 10 10 13 15 14 14 15 17 18 17 15 17 19 15 11 11 11 9 7 8 11 13 14 10 5 5 5 6 8 10 14 16 17 16 18 19 18 17 16 14 12 13 15 16 14 13 12 9 5 1 1 4 3 3 7 8 9 10 11 11 7 9 12 14 14 11 10 13 13 9 8 7 7 8 7 4 4 4 5 5 4 3 4 4 4 4 3 3 4 3 2 3 4 5 4 6
9 10 12 14 16 17 18 18 18 18 16 15 16 13 7 7 10 11 9 7 8 10 11 10 7 4 3 3 6 10 12 15 16 15 15 18 19 18 17 16 14 14 14 15 14 12 11 9 10 9 4 4 4 1 3 7 10 12 12 11 10 7 9 11 12 13 10 11 14 11 8 8 7 7 7 6 4 5 8 7 7 7 7 7 6 4 4 3 3 3 3 2 3 3 5 5 5
12 13 12 10 12 17 19 20 18 15 15 13 12 10 9 10 12 13 10 9 11 11 11 9 7 5 4 4 6 10 13 14 13 13 14 16 18 19 17 16 17 17 16 13 10 8 9 10 13 13 9 6 4 1 2 7 11 12 13 12 11 9 9 10 11 12 10 12 13 10 10 11 8 9 9 6 5 8 10 10 10 10 9 8 7 5 5 5 4 4 4 4 4 4 5 5 5
12 12 13 11 12 17 20 20 17 15 14 11 10 11 13 15 14 14 12 13 14 11 11 11 10 8 6 4 4 7 11 12 11 12 13 13 16 18 18 19 20 20 18 13 9 8 10 12 12 11 9 6 2 1 4 8 10 12 13 14 14 12 10 11 12 13 11 11 13 13 14 11 8 10 9 7 8 10 10 11 11 11 9 9 8 7 6 5 5 5 6 6 5 5 4 4 5
8 9 13 13 15 20 21 20 18 18 16 12 10 14 17 16 15 16 16 17 16 13 13 12 11 10 8 6 4 5 7 8 9 11 13 15 15 17 20 22 19 18 19 13 8 10 10 10 10 9 7 3 2 5 6 8 9 10 12 13 15 15 13 12 12 12 11 10 13 14 14 11 10 10 7 8 11 11 12 13 13 12 11 11 11 10 9 7 7 7 7 6 5 4 3 3 4
5 7 12 14 18 20 16 17 20 20 19 16 14 17 18 14 12 15 17 20 18 16 16 14 13 13 10 8 5 2 3 5 8 9 14 17 17 16 19 15 12 12 17 12 7 10 9 8 8 6 3 1 4 5 7 8 8 8 10 12 13 15 14 11 10 10 11 10 11 12 13 13 14 10 7 10 13 14 16 17 15 14 15 14 14 13 11 9 9 9 9 9 7 6 5 5 7
7 7 8 12 16 13 5 11 19 18 17 16 17 18 16 13 11 12 18 22 21 17 16 16 16 14 11 10 5 3 3 6 9 11 14 17 17 17 15 11 9 9 11 9 7 10 9 8 7 4 2 1 3 5 7 8 9 9 11 11 12 13 13 12 9 8 9 9 9 10 11 12 12 11 10 11 14 18 19 17 16 17 18 18 16 14 13 12 12 12 11 11 10 9 9 9 10
9 8 9 12 16 15 9 8 13 15 15 16 20 20 14 10 10 14 22 24 22 17 16 18 18 15 13 10 5 7 7 5 8 12 14 16 17 18 15 12 11 9 9 9 10 11 10 10 7 4 1 1 3 5 7 8 10 10 11 11 11 12 12 12 10 7 7 7 8 10 9 8 10 12 13 14 16 18 17 16 16 18 19 18 17 16 15 15 14 14 13 13 12 12 11 11 11
9 6 10 12 16 20 20 17 12 13 17 19 23 23 19 12 9 14 23 23 20 16 13 18 21 18 16 12 7 11 11 5 5 9 13 16 16 14 13 12 12 13 13 13 14 14 12 11 8 4 2 1 3 4 5 8 10 12 12 11 11 12 11 10 8 7 7 7 9 11 11 10 11 12 13 16 18 17 15 16 17 18 19 18 17 17 17 16 15 15 15 16 15 15 14 12 12
7 6 10 11 12 17 21 22 16 14 18 22 23 24 21 14 9 20 23 20 20 16 13 15 21 22 20 16 12 12 12 5 3 5 8 14 15 13 12 12 14 15 16 17 16 16 14 12 8 5 3 2 3 3 4 7 11 13 14 12 12 13 12 10 7 7 7 8 10 13 14 13 12 12 13 16 16 15 15 16 17 19 20 20 20 18 17 17 17 17 17 17 17 17 16 15 14
10 11 12 14 15 16 16 18 15 14 20 23 23 23 17 11 17 26 21 19 20 17 15 15 18 24 23 17 15 14 11 5 4 3 2 6 11 14 14 14 16 17 17 18 17 16 15 13 9 6 5 3 2 3 4 7 11 14 15 14 14 14 14 11 8 7 8 10 12 13 14 14 12 12 12 13 13 14 15 16 18 20 21 21 21 20 19 20 20 20 19 18 18 18 17 16 15
12 13 16 18 21 19 15 10 13 18 23 21 20 21 13 10 23 26 21 22 21 19 18 16 16 23 23 19 18 15 10 6 6 3 0 2 4 10 15 17 20 21 20 19 18 17 16 13 9 8 7 4 2 3 3 6 10 13 15 16 17 17 15 13 9 6 7 10 12 14 15 14 13 12 12 11 12 14 15 16 17 19 20 20 19 18 18 20 22 22 22 20 18 17 17 16 17
11 14 17 19 22 19 14 3 15 22 25 20 17 19 13 12 22 24 24 25 22 21 18 15 16 20 21 20 19 14 10 9 9 5 3 3 2 7 14 19 21 23 22 20 19 19 17 14 11 10 8 4 2 3 3 6 10 12 14 16 18 20 19 16 12 7 4 6 9 12 16 16 15 15 15 15 15 15 16 17 18 19 19 19 18 16 16 17 19 21 22 20 18 17 17 17 18
13 15 17 18 20 17 8 5 17 22 25 20 17 18 14 12 13 13 20 24 22 19 15 13 14 19 19 18 16 14 14 14 11 8 7 6 3 7 12 15 16 18 19 17 18 20 18 15 13 12 10 5 3 3 3 5 10 12 14 16 18 20 20 18 15 11 6 3 5 7 11 13 15 16 17 18 18 19 20 21 22 21 20 20 20 20 19 18 17 18 19 18 17 16 16 18 18
17 16 17 18 17 16 7 5 14 19 21 16 15 16 14 13 10 4 10 23 25 17 14 14 14 15 15 13 11 12 15 16 13 9 7 6 5 8 9 7 9 12 13 14 18 20 19 16 15 14 11 7 5 4 4 5 9 12 13 15 16 17 19 19 16 14 10 4 2 4 5 7 9 11 13 16 16 17 18 19 20 20 19 20 21 21 21 20 19 17 16 15 16 16 15 17 17
17 15 17 17 12 10 8 2 4 10 11 9 9 11 13 15 15 6 6 16 21 16 15 17 16 14 14 13 12 11 11 12 14 12 9 9 8 9 10 6 8 10 9 10 16 19 18 17 16 16 13 10 7 6 6 6 8 11 12 13 15 16 18 18 17 15 12 7 2 2 4 5 6 6 7 9 9 9 10 11 12 13 13 14 16 17 17 17 17 17 15 13 14 15 16 16 16
15 15 13 10 5 5 6 4 2 3 4 7 6 5 9 15 16 11 5 7 12 14 16 20 20 18 18 18 16 13 10 9 13 13 10 9 9 10 13 10 8 10 9 9 14 17 17 16 18 19 16 13 9 8 8 7 8 9 10 12 13 15 17 18 18 17 13 9 4 1 3 4 5 4 4 4 4 5 5 5 5 6 7 7 8 9 10 11 13 14 14 13 12 14 15 16 15
10 12 8 6 4 6 6 5 5 5 3 5 5 3 6 13 15 13 8 7 8 12 18 23 25 23 21 21 17 13 10 9 13 15 11 9 10 12 14 13 10 10 10 10 13 17 18 17 19 21 18 15 12 10 10 9 9 8 9 11 12 14 15 17 18 17 14 9 4 2 3 4 4 4 3 3 3 3 3 2 2 3 3 3 3 4 5 6 7 10 12 13 12 13 14 14 14
13 14 8 6 6 7 5 2 2 5 5 4 5 6 7 12 14 11 9 9 6 8 18 25 25 22 19 18 14 10 9 10 12 15 13 11 12 11 10 11 11 11 11 11 12 16 19 18 20 22 21 18 14 13 12 10 10 8 7 9 10 12 13 16 18 17 15 11 6 3 3 4 4 4 3 3 2 2 2 2 2 2 2 2 2 1 1 2 3 7 10 12 12 13 13 13 13
15 12 9 7 5 5 5 3 2 4 6 8 8 9 7 9 13 10 10 11 8 7 16 23 23 21 18 14 11 10 12 12 12 12 11 11 11 9 7 9 10 11 11 10 11 15 18 18 20 22 22 21 18 15 14 13 12 8 6 8 9 9 11 14 16 16 16 13 8 4 2 3 3 3 3 3 3 3 2 3 5 5 5 4 3 4 4 3 4 5 6 8 9 11 11 11 11
13 8 8 9 7 6 6 6 5 4 3 9 11 13 9 6 12 13 11 11 10 8 12 18 23 22 20 17 12 13 13 12 12 11 10 10 10 8 8 10 11 10 10 11 14 16 18 19 21 22 23 24 22 18 16 15 13 9 5 6 7 7 9 12 15 15 15 13 9 5 3 1 0 1 1 2 3 4 4 4 5 7 7 7 7 7 6 6 6 7 6 6 6 6 7 7 7
12 11 11 13 12 11 9 10 9 4 2 6 7 11 11 5 8 10 10 11 12 13 14 16 21 22 21 19 13 13 14 13 13 13 13 13 12 11 12 13 12 12 12 14 16 17 18 19 20 21 22 23 24 21 17 17 15 11 6 4 6 6 7 10 13 14 14 13 9 5 3 2 3 3 4 5 5 6 6 6 6 7 7 8 8 7 7 7 7 8 8 7 7 6 6 6 6
7 11 14 14 9 7 8 10 8 2 1 3 1 2 6 6 6 8 10 12 14 16 18 17 21 24 20 17 14 14 16 17 16 16 15 15 14 13 14 14 14 15 16 16 15 16 18 19 20 21 22 23 25 23 19 18 18 14 9 7 7 7 6 8 10 12 12 11 8 4 3 3 5 6 7 7 8 8 7 7 7 7 7 7 7 7 7 7 7 8 8 7 7 7 6 6 5
5 7 11 8 1 3 3 6 3 2 2 1 1 4 3 5 7 8 8 10 12 12 16 19 23 23 19 16 15 16 17 16 16 15 15 15 14 14 13 14 15 16 18 17 16 15 16 17 18 20 21 22 24 25 22 21 20 17 12 9 8 7 5 6 8 9 9 9 7 4 3 4 6 8 9 10 11 11 11 11 10 10 10 9 9 9 8 8 8 8 7 7 7 6 5 4 4
7 7 10 7 3 3 1 3 1 2 3 0 3 5 3 4 6 9 10 8 7 10 14 16 19 19 18 17 16 15 14 14 13 14 13 13 14 12 12 12 14 16 18 19 18 16 16 17 19 21 23 25 27 28 27 24 22 19 15 12 10 7 3 3 5 6 6 6 6 4 2 4 8 11 13 14 15 16 16 16 15 15 15 14 13 13 13 12 11 11 11 10 10 9 8 7 7
6 7 8 6 5 4 2 4 3 3 3 1 3 3 2 3 5 8 12 9 10 14 12 10 13 18 18 15 15 14 14 13 13 13 12 11 11 10 10 11 13 15 17 17 18 19 20 22 25 26 27 30 31 32 33 27 22 20 17 15 13 9 3 2 2 2 3 4 5 4 2 4 8 12 15 17 18 19 19 19 18 18 18 18 18 18 17 17 16 16 15 15 15 14 14 13 12
4 5 9 8 7 7 5 5 6 5 2 1 3 4 4 5 6 4 7 10 16 15 13 11 13 17 18 14 12 12 11 10 10 11 12 12 11 10 10 10 11 13 15 17 20 24 28 31 32 32 32 33 32 34 34 25 20 21 20 16 15 13 7 5 2 1 1 1 3 2 1 4 7 11 14 16 18 18 18 18 18 18 18 18 18 18 18 18 17 17 16 16 16 15 15 14 14
4 3 6 3 5 10 8 5 5 4 2 2 4 6 8 9 6 1 4 13 17 12 12 13 14 17 17 15 12 11 9 9 8 10 11 10 8 8 9 10 12 14 16 19 23 28 32 35 36 38 39 38 37 37 36 30 24 23 18 16 17 14 9 7 5 3 3 2 2 2 2 3 5 8 11 13 15 15 15 15 15 16 16 15 15 15 15 15 15 15 14 14 13 13 13 13 12
4 3 4 3 3 6 5 3 1 3 1 3 5 8 9 7 7 8 11 14 13 12 13 13 14 15 15 14 13 13 11 9 8 9 11 11 12 12 11 12 13 14 16 18 23 28 32 37 41 45 46 44 43 42 38 36 31 22 16 17 18 15 12 10 8 7 6 5 4 3 3 3 4 5 7 9 10 11 11 11 11 11 11 11 11 10 10 10 10 10 10 10 10 10 10 10 10
4 2 4 4 3 4 2 2 2 2 1 3 3 5 4 2 4 9 15 16 15 16 16 16 16 15 15 15 14 14 14 14 15 16 17 19 19 15 12 11 11 13 14 15 21 26 28 31 35 38 40 41 43 39 30 27 25 21 20 20 19 17 15 14 12 12 11 9 7 6 6 4 5 5 5 5 5 6 7 7 7 7 7 6 6 6 5 5 5 5 5 6 6 6 7 7 7
3 3 4 4 2 3 3 2 4 4 2 2 2 2 3 5 5 2 11 15 17 18 18 18 18 17 16 16 15 16 17 17 17 16 17 17 16 13 10 9 10 10 11 11 14 16 14 15 16 16 19 25 33 32 24 21 25 24 23 21 20 19 16 17 17 16 14 12 11 10 9 7 7 7 6 6 5 4 4 3 3 3 3 2 2 2 2 3 3 3 3 3 4 4 5 6 6
2 1 3 3 3 3 2 3 5 5 3 3 1 1 3 8 9 4 5 9 13 15 13 12 14 16 16 16 16 17 18 18 17 17 17 15 14 13 10 9 10 9 9 8 8 8 6 6 5 5 8 14 21 25 23 23 28 28 24 23 23 21 18 19 20 19 18 16 15 14 12 11 10 9 8 8 8 8 8 8 6 5 4 3 4 4 5 6 6 6 6 5 6 6 6 7 7
5 4 6 3 3 3 3 3 4 3 2 4 3 2 1 5 7 4 1 5 10 12 12 13 16 18 17 16 15 16 16 17 18 19 17 15 14 14 12 12 11 10 10 8 6 5 4 4 2 5 9 11 11 14 17 21 26 27 24 25 25 22 21 21 21 22 21 20 20 18 16 15 14 13 12 11 10 9 9 9 9 9 9 9 10 9 10 11 11 10 9 8 8 8 8 8 8
Wind_Direction
187 187 190 196 198 195 192 190 201 210 221 240 245 254 259 277 294 309 313 300 180 176 199 202 192 186 201 212 201 184 179 175 174 191 202 193 192 187 197 197 198 206 173 168 186 186 189 193 202 209 213 214 211 206 204 204 202 201 203 207 207 202 201 209 214 215 212 216 221 233 249 263 267 258 238 217 222 234 213 196 195 190 183 182 181 182 184 183 182 180 180 178 176 177 178 176 177
187 188 186 192 200 199 195 191 209 213 216 238 245 253 260 303 302 320 44 118 141 134 205 210 210 212 199 206 211 224 233 241 268 288 313 166 176 182 191 195 193 196 182 179 191 194 194 197 205 211 216 216 213 208 205 204 204 202 200 202 205 205 208 215 217 215 209 210 216 225 242 253 264 261 248 233 220 229 233 209 197 195 189 187 185 184 185 186 185 183 183 181 180 181 182 181 181
192 194 191 195 205 210 204 197 213 210 203 236 253 255 260 315 318 158 122 119 126 140 209 231 226 228 217 224 227 241 265 289 289 291 308 352 168 185 182 183 187 190 190 195 201 204 201 201 207 213 217 218 215 209 205 204 204 202 200 202 205 210 213 217 217 214 208 207 212 216 231 243 255 259 252 238 228 224 233 227 208 200 195 191 189 186 187 189 188 187 185 184 184 185 185 185 186
196 200 199 199 209 219 217 209 214 213 203 234 261 249 230 344 76 128 141 131 105 242 250 261 259 256 238 266 265 247 264 288 292 288 294 301 195 185 183 182 186 192 197 202 203 207 206 204 208 214 217 218 215 208 204 202 202 201 203 207 208 211 214 217 217 213 208 205 208 213 225 240 251 257 257 242 233 231 231 232 222 208 199 195 192 190 190 192 191 189 187 186 188 189 189 189 190
195 203 206 201 209 221 224 217 211 215 217 237 255 221 172 78 103 88 109 155 210 261 256 273 288 288 278 283 294 290 281 282 286 290 290 289 268 185 189 197 196 199 203 205 205 208 207 205 207 212 214 214 213 207 202 200 201 202 205 210 209 209 212 216 215 210 208 205 208 216 226 239 252 257 257 249 234 237 235 231 227 215 205 199 194 192 194 195 194 191 190 190 191 193 193 192 193
190 198 204 202 205 216 224 223 218 226 235 244 247 243 223 135 140 335 325 194 242 260 262 280 292 282 284 289 288 290 292 289 283 283 282 280 271 191 194 207 210 209 207 209 207 208 205 203 205 209 211 209 210 206 201 200 201 203 204 209 209 208 211 214 213 210 208 205 211 221 234 245 254 258 259 257 242 236 236 229 224 217 210 205 199 195 197 198 196 194 193 193 194 197 198 195 196
188 191 203 206 202 210 222 227 229 237 242 241 249 261 230 172 286 301 260 212 303 260 266 285 298 287 276 279 276 276 285 289 287 283 278 274 259 201 196 208 219 219 212 210 206 206 202 199 202 205 206 205 207 203 199 199 200 201 201 206 209 208 208 211 212 210 205 204 218 231 247 256 258 258 257 260 255 240 235 229 221 214 211 209 205 200 200 200 198 197 196 197 197 200 202 200 199
190 189 198 206 203 208 218 224 226 237 242 236 251 268 248 234 294 282 238 183 39 199 252 302 305 296 268 261 269 274 288 289 290 291 278 268 260 235 213 210 222 223 214 209 204 204 200 196 199 201 201 202 202 198 195 194 196 197 199 204 207 208 207 209 212 210 202 203 227 247 256 261 260 255 251 254 254 245 236 230 220 212 209 209 208 206 204 203 201 199 199 200 201 203 206 204 203
193 192 191 201 204 206 217 226 227 233 241 246 267 274 263 268 270 251 235 232 290 211 259 297 288 286 260 249 254 264 286 285 288 292 279 268 262 251 228 214 218 218 211 205 201 199 193 190 192 195 196 197 195 190 187 187 192 196 200 204 207 209 207 207 209 205 200 211 244 267 267 263 260 253 247 245 244 238 231 229 220 212 210 210 210 210 208 206 204 202 200 202 204 205 208 208 207
194 196 193 199 200 204 216 225 227 229 255 306 316 307 281 270 246 225 217 224 251 315 307 296 258 263 255 250 257 263 283 284 291 291 279 270 258 239 217 211 210 206 203 199 197 193 184 183 187 191 192 191 188 183 183 186 192 198 202 205 209 208 206 204 199 193 194 242 279 290 281 268 258 251 245 241 240 236 228 224 220 214 212 213 214 214 213 211 208 205 203 204 206 206 209 212 211
193 197 193 194 193 208 226 238 243 254 301 326 341 333 301 248 222 211 199 215 220 265 289 284 253 250 253 261 264 263 275 282 294 289 276 266 245 219 204 204 203 196 194 194 194 190 181 181 184 187 188 186 183 181 184 190 194 198 203 206 208 206 202 194 178 170 169 307 319 313 296 277 260 252 249 247 246 241 234 227 224 222 218 218 219 219 218 217 214 210 208 206 208 208 209 213 214
192 200 192 182 186 210 240 267 274 283 316 348 11 13 24 166 193 194 168 174 182 264 276 279 277 277 266 256 254 255 269 283 289 277 265 254 233 218 210 201 203 200 194 195 195 190 183 179 181 185 185 182 180 182 188 192 194 196 201 207 208 204 195 178 166 166 161 12 357 335 302 282 270 262 259 255 253 248 242 235 231 230 229 228 227 226 223 222 220 216 213 210 210 209 210 213 214
191 200 192 179 185 195 225 262 282 297 340 1 351 49 102 171 176 152 136 144 76 302 272 279 296 303 290 263 247 245 266 281 275 263 255 244 227 217 207 192 199 199 197 204 200 191 184 176 175 181 181 179 177 180 185 186 190 195 203 207 204 194 178 169 174 175 146 78 31 347 299 288 282 276 270 262 256 249 245 241 235 235 236 236 236 236 232 227 224 221 217 214 213 211 211 213 214
184 189 191 186 190 189 210 241 271 296 320 335 306 142 143 184 163 152 145 355 312 288 280 288 298 297 291 268 248 240 263 274 263 254 245 234 219 203 189 185 192 195 203 208 202 192 188 180 177 178 178 178 178 182 185 184 190 198 206 200 185 170 164 173 179 164 130 96 80 229 252 272 283 283 273 262 255 245 241 241 240 240 240 241 241 240 239 236 230 226 222 218 216 213 212 213 214
170 170 190 205 205 203 205 212 220 296 333 353 290 229 169 144 106 148 204 337 312 281 289 296 295 293 278 261 263 259 269 266 256 248 237 230 216 196 183 182 185 193 203 203 201 195 192 190 183 179 180 181 183 189 190 195 200 207 211 192 164 156 169 183 175 148 132 145 200 217 226 236 256 268 256 251 246 233 234 240 245 247 247 246 245 244 242 241 237 231 228 223 218 216 214 213 214
165 161 188 210 209 206 201 207 229 315 24 44 62 171 161 148 97 84 336 357 348 293 293 292 285 289 276 269 282 272 264 259 252 242 233 229 220 209 196 186 184 191 196 196 197 193 190 186 182 179 180 185 194 203 205 210 213 216 215 185 158 180 195 193 167 142 156 172 199 217 224 227 243 253 248 244 230 219 227 246 258 254 256 255 252 250 246 242 239 237 237 230 222 219 217 215 215
169 171 196 207 205 201 197 206 213 55 23 18 35 148 126 104 102 102 8 38 352 313 287 282 278 276 267 265 272 253 263 260 245 235 230 226 224 221 210 199 192 188 183 185 184 179 178 173 173 173 180 197 209 214 211 215 219 223 222 180 180 216 215 202 171 156 162 169 203 220 226 226 241 254 258 249 232 226 225 236 264 257 253 259 262 255 244 238 237 240 247 240 226 221 219 218 217
180 186 200 207 202 199 201 214 230 279 307 338 328 198 200 218 106 116 286 345 304 302 284 282 275 227 230 246 243 250 265 256 237 233 229 225 225 218 209 200 182 173 173 175 170 161 160 161 165 172 185 201 208 206 203 215 227 230 227 188 198 216 209 206 188 162 146 164 235 242 258 259 229 245 269 249 221 223 221 223 224 230 248 269 279 260 240 232 232 238 245 243 228 221 220 219 218
193 198 207 213 204 204 217 240 258 298 317 326 298 258 226 214 109 287 277 323 282 271 272 281 283 247 234 243 241 251 262 263 256 234 222 225 222 206 198 186 163 162 167 166 163 153 149 157 166 173 184 192 196 196 195 215 232 236 226 189 191 210 213 212 333 331 41 317 275 269 292 268 225 193 233 232 211 197 202 225 222 205 179 26 327 271 243 231 231 238 245 246 232 221 219 219 218
203 208 217 226 218 224 230 247 260 307 322 310 261 247 228 219 46 318 278 270 243 247 261 271 287 275 255 249 246 258 270 276 269 238 218 215 211 198 190 177 162 159 160 161 165 159 159 170 170 175 184 185 191 198 199 210 218 225 220 201 209 223 234 289 342 306 326 309 289 280 256 237 223 202 218 233 221 207 202 216 219 207 200 234 283 283 241 233 234 243 255 252 233 220 217 218 217
204 218 229 241 257 258 230 236 280 300 305 290 266 239 217 219 243 305 273 250 243 259 277 276 280 280 269 257 252 261 269 276 268 244 222 210 205 196 180 171 165 161 170 183 178 174 179 178 173 181 190 186 188 195 197 199 206 217 213 220 244 254 286 296 283 291 300 291 282 275 261 240 223 207 216 225 212 196 199 197 184 184 195 216 217 200 153 223 250 265 280 265 227 213 212 216 217
204 220 233 245 271 271 218 177 295 299 293 281 278 262 237 237 247 256 243 247 263 273 279 278 278 282 279 263 256 252 250 259 261 247 225 210 204 195 182 174 168 168 187 199 187 181 182 179 179 184 186 181 182 178 175 198 216 214 200 238 272 286 296 285 279 287 288 275 261 253 254 249 234 216 223 229 206 162 169 183 182 171 177 200 195 203 241 287 332 332 331 325 218 203 205 211 216
217 221 232 255 278 272 224 277 295 297 293 277 274 271 269 270 260 242 232 249 261 261 263 271 286 278 261 264 255 242 238 258 259 243 226 213 204 196 189 180 171 172 183 189 183 178 173 176 185 184 178 171 171 171 180 212 225 201 156 255 288 295 291 286 283 285 281 261 251 247 253 256 250 239 234 243 271 154 162 180 199 189 187 219 215 219 257 283 314 326 342 10 39 199 205 208 212
230 232 236 259 272 269 266 284 282 274 278 278 276 274 275 283 280 258 249 255 242 236 250 262 279 218 214 245 241 240 246 251 239 225 223 218 207 196 191 185 179 178 182 185 178 175 174 180 190 183 175 165 145 155 219 241 257 282 309 271 285 295 287 285 285 280 268 257 260 260 260 263 255 238 234 243 282 237 189 186 212 214 204 238 262 257 274 281 291 300 307 352 5 301 231 223 218
234 244 254 263 262 272 281 276 267 264 275 284 285 285 283 281 280 268 263 271 247 243 253 254 257 201 184 220 239 246 232 219 217 217 223 224 212 196 190 190 188 184 183 185 177 177 183 183 190 181 161 137 113 142 242 289 297 303 304 270 261 284 284 277 276 273 260 256 266 268 269 269 253 231 233 238 217 209 188 186 202 187 181 212 264 276 281 284 292 297 300 329 341 336 311 268 244
227 245 268 269 259 268 277 273 266 263 270 280 284 290 287 268 260 259 258 267 264 257 251 243 238 204 185 224 251 249 226 213 212 217 225 229 216 198 189 187 189 187 181 183 179 180 186 184 182 173 102 116 137 159 260 308 308 305 303 274 258 274 282 274 270 268 258 255 264 266 268 262 241 225 233 236 226 224 198 176 177 180 207 220 234 257 260 278 297 293 294 307 316 324 325 306 281
232 256 274 273 261 258 264 269 266 259 262 270 278 283 260 224 246 261 263 246 241 238 228 225 223 219 239 246 238 231 225 220 217 217 224 229 216 199 188 184 190 193 188 186 180 178 182 178 170 171 199 188 166 192 265 304 321 320 310 295 289 291 280 275 272 265 254 253 260 262 260 251 232 216 222 228 217 219 215 208 214 233 252 245 231 230 234 256 273 263 256 263 279 297 306 308 307
253 264 268 264 250 246 250 259 263 262 265 265 268 263 232 236 251 260 263 220 210 221 217 225 239 243 265 253 234 234 235 236 232 223 224 228 216 199 191 190 194 194 191 187 176 178 178 174 175 177 186 180 172 183 279 308 328 328 316 307 301 292 271 269 271 264 254 251 253 253 242 231 227 221 211 212 215 209 209 212 218 227 243 241 234 241 244 248 250 243 236 242 258 269 285 302 316
253 256 256 249 246 242 241 251 258 259 259 254 259 263 249 249 252 258 257 210 200 221 229 243 247 231 235 234 248 266 258 245 226 212 213 217 208 198 197 199 196 186 181 183 176 178 183 180 180 175 170 162 164 332 340 329 333 330 319 308 300 293 274 263 261 261 261 254 248 248 244 231 226 225 204 198 213 208 202 203 208 213 223 228 238 251 251 250 247 243 241 242 252 259 273 298 314
245 252 251 251 259 252 245 247 248 249 248 237 245 263 253 243 250 255 244 217 210 224 235 244 231 211 212 216 248 286 270 234 201 203 204 195 190 197 208 205 198 183 169 175 180 175 185 188 179 166 158 147 356 340 346 344 339 328 316 308 301 298 289 273 262 262 265 259 249 248 253 248 228 215 202 209 214 214 216 216 212 210 213 222 236 247 249 248 241 239 247 248 243 242 250 281 298
236 249 241 244 263 263 260 247 242 247 244 233 238 255 251 236 245 248 231 225 229 231 232 228 208 204 208 204 219 260 243 205 189 205 203 189 183 200 221 213 201 192 168 167 182 180 192 196 183 170 149 14 350 351 352 349 345 335 324 316 308 304 303 296 280 268 267 266 261 247 244 247 237 217 205 217 220 221 222 220 217 214 216 222 233 244 245 243 241 241 246 249 249 245 243 254 268
216 250 247 244 260 273 283 228 231 237 230 225 228 242 248 227 225 241 235 234 234 231 229 220 203 202 205 190 194 220 198 193 197 210 206 196 190 198 222 223 213 209 177 174 195 193 199 193 188 183 137 10 4 8 1 0 4 360 347 338 326 318 315 312 301 281 271 267 265 254 239 238 241 230 213 212 220 223 222 221 221 222 224 227 234 241 242 241 245 248 247 248 253 253 254 256 260
210 245 262 256 263 276 288 243 231 231 225 221 222 232 243 229 230 237 231 228 226 228 230 222 208 202 202 189 207 250 232 205 210 222 217 206 198 198 211 217 214 214 201 203 204 201 200 191 195 194 155 20 32 22 12 20 22 14 0 352 345 336 326 320 314 296 279 261 252 258 250 233 226 224 218 219 223 222 222 225 225 229 233 237 241 242 241 240 242 246 248 249 251 254 260 261 260
211 242 272 275 277 275 280 283 259 237 236 227 224 229 232 249 263 217 210 215 219 226 228 216 210 206 199 194 230 247 225 214 242 249 236 217 208 209 219 221 216 215 213 209 203 201 198 197 210 214 213 345 34 20 15 30 28 22 14 9 5 356 342 328 314 290 282 268 252 251 250 242 228 217 213 220 223 220 222 229 231 233 236 240 243 244 245 244 243 247 249 249 250 253 258 260 261
232 278 298 303 298 278 281 288 270 242 234 224 226 228 229 251 225 182 191 209 215 226 229 213 211 206 192 195 229 228 206 211 283 283 254 237 234 230 227 230 229 221 213 208 202 199 197 204 222 237 244 288 12 1 11 28 24 20 21 25 21 12 2 344 310 283 275 260 253 251 248 246 242 230 219 222 228 227 229 236 240 239 239 242 244 246 250 249 248 249 248 247 249 250 250 253 258
273 287 294 298 297 295 302 290 260 229 219 217 222 223 230 237 187 177 189 205 216 229 228 217 211 202 194 202 223 214 200 221 269 284 242 238 247 235 218 219 231 231 221 212 207 201 201 211 230 244 243 255 331 353 14 18 16 15 20 29 29 22 15 5 333 293 269 252 250 252 252 251 251 248 238 235 236 235 238 241 244 246 246 247 247 248 250 251 249 250 251 249 247 245 244 247 250
278 277 281 285 284 300 328 287 220 193 201 210 214 219 234 211 183 184 189 197 217 227 219 220 214 202 202 210 215 209 201 208 233 255 129 147 237 236 224 217 224 231 228 220 214 207 205 216 233 237 236 248 319 352 5 2 5 10 15 22 29 29 22 16 5 325 277 261 256 251 252 252 250 252 252 250 247 245 246 245 246 250 251 251 249 247 248 250 250 251 251 247 243 240 239 241 243
263 269 278 284 282 301 349 283 199 183 191 200 204 217 232 204 189 194 194 197 215 222 219 224 214 205 209 213 212 206 195 199 215 226 239 245 222 216 221 224 229 233 233 226 219 212 208 217 227 226 228 236 301 331 339 351 357 1 8 16 25 28 24 21 18 5 313 269 261 255 254 251 246 247 251 253 254 255 256 256 255 255 253 250 247 244 244 247 249 248 245 242 240 235 232 237 240
267 282 285 288 287 303 1 157 191 190 197 201 202 214 219 198 191 196 201 207 212 217 232 239 217 205 205 207 211 209 200 207 219 223 231 248 234 200 207 223 236 239 238 233 224 216 211 218 224 221 219 220 258 296 312 339 348 350 1 14 21 25 25 23 20 16 4 290 253 255 257 254 249 247 249 252 255 258 260 261 260 257 253 248 247 248 249 250 251 250 246 239 234 229 228 236 242
273 290 287 285 292 304 337 140 177 190 201 206 207 216 215 205 211 200 195 210 213 220 248 251 225 206 202 205 215 214 211 219 224 219 220 229 223 200 194 213 233 237 240 238 230 221 215 219 222 219 214 213 234 265 285 317 338 343 354 10 19 23 24 24 21 19 15 3 250 231 242 251 249 244 247 250 252 254 256 257 257 255 252 249 248 251 254 254 252 253 253 240 230 229 232 239 245
273 285 285 282 290 301 311 354 160 184 201 215 219 226 224 223 233 229 164 199 215 231 248 239 220 213 216 221 222 210 211 228 222 210 210 219 227 213 204 221 236 238 247 246 237 227 219 221 221 216 214 215 226 250 264 294 322 334 348 4 15 18 21 22 20 19 16 10 0 206 214 229 237 235 241 247 246 247 251 255 257 257 254 251 250 252 255 255 251 250 252 243 230 229 233 239 243
276 281 279 273 288 302 280 276 272 238 236 232 243 262 238 240 242 227 195 205 223 236 240 233 228 225 220 220 219 201 195 216 219 220 222 220 231 226 219 228 242 248 253 252 243 230 221 222 221 218 218 221 227 240 249 276 306 323 341 355 10 16 18 19 18 19 16 5 354 229 202 210 218 215 218 232 236 232 237 247 257 265 265 259 253 253 252 252 248 245 244 241 233 231 233 237 240
269 280 266 230 271 305 286 267 261 272 271 209 225 272 255 260 252 234 249 264 239 238 238 237 237 233 224 218 212 195 191 208 212 216 220 223 232 229 228 233 241 253 254 251 244 232 227 227 223 222 224 226 231 236 240 260 287 308 332 346 3 12 14 16 15 17 17 7 348 277 227 218 220 217 210 222 233 226 217 213 222 245 256 253 251 252 248 242 232 228 232 234 230 229 232 234 237
268 276 253 231 273 294 296 308 281 277 270 223 225 243 255 267 257 253 278 275 259 241 231 230 232 236 231 216 206 204 219 232 221 212 215 226 229 229 240 245 245 252 249 247 243 236 237 234 226 226 228 230 233 235 235 247 270 289 321 337 355 8 11 13 14 17 18 13 360 313 268 245 238 234 231 226 224 219 194 152 130 152 180 192 203 201 210 213 192 202 219 226 227 228 228 230 235
268 271 245 244 273 287 281 268 324 329 270 244 238 232 240 263 254 269 293 274 272 241 219 225 232 238 233 216 217 231 232 236 229 220 225 225 216 215 240 251 248 247 242 242 243 241 243 238 230 231 234 234 234 237 237 240 256 271 303 328 346 3 5 8 14 17 19 19 13 355 309 263 251 242 236 219 203 188 157 128 115 118 128 129 116 101 97 99 122 159 189 209 220 224 222 222 229
252 256 246 244 247 273 280 259 280 341 277 256 254 232 224 260 257 267 290 283 281 263 237 237 236 236 227 217 231 235 222 219 214 212 219 214 204 201 216 233 235 233 233 237 239 242 243 239 234 235 238 237 234 236 238 237 247 259 279 317 334 349 355 4 13 15 18 21 21 23 27 355 227 200 187 167 168 164 153 143 127 117 118 120 114 104 103 108 114 123 135 155 177 188 189 194 204
248 251 252 249 254 269 273 271 281 320 298 264 262 232 217 243 270 268 281 288 285 276 276 260 231 220 216 215 228 230 214 203 200 206 210 204 198 194 201 214 217 219 225 229 235 240 241 240 237 237 240 240 235 234 237 236 240 249 253 283 304 315 341 1 9 12 15 19 22 31 54 79 91 92 101 112 126 139 145 144 137 130 127 125 122 119 119 123 127 128 131 137 142 143 150 160 169
257 250 245 245 262 286 277 279 281 290 266 229 237 257 216 221 266 272 273 285 289 277 274 261 221 207 211 220 228 220 202 196 199 208 208 199 195 193 199 209 212 217 222 223 231 239 242 242 241 239 242 243 236 230 232 233 234 238 236 243 274 292 329 2 6 7 14 18 18 22 52 82 92 94 99 106 113 121 128 130 131 130 126 123 122 123 124 126 129 132 133 135 138 141 147 154 159
253 223 211 206 123 26 294 288 282 210 225 212 321 323 254 223 253 269 274 289 293 265 242 234 217 211 221 227 222 211 199 201 208 209 205 198 196 199 208 215 216 221 224 225 228 238 248 248 246 244 245 250 245 232 228 229 229 231 228 230 257 283 316 8 10 4 15 22 16 14 47 84 96 100 102 105 108 110 112 112 112 112 112 113 114 112 112 113 113 116 120 121 125 132 137 140 145
236 203 176 163 125 79 261 273 316 251 238 43 350 325 284 261 268 264 268 277 260 224 209 212 216 223 231 218 200 196 199 208 213 210 210 208 204 204 211 223 227 227 228 227 227 235 245 249 252 249 245 248 247 236 227 221 220 222 221 225 239 260 298 25 24 4 13 25 24 25 58 98 104 104 103 104 104 104 104 104 102 101 101 101 100 99 98 97 96 96 95 93 91 89 88 86 84
224 224 208 213 198 166 205 225 200 213 222 234 337 325 282 312 312 270 267 259 218 216 220 222 224 225 225 209 187 188 199 208 206 197 197 202 203 207 217 232 241 240 238 236 236 239 241 245 250 250 246 245 244 240 231 216 203 208 217 225 235 238 224 111 66 3 11 33 38 39 78 114 112 109 108 106 104 102 101 100 98 97 97 96 95 94 91 90 89 87 85 83 82 79 76 74 73
213 241 228 235 233 214 208 206 199 183 170 263 273 263 266 303 331 323 270 218 192 208 229 226 219 215 214 210 196 193 200 206 197 181 182 192 203 221 237 251 262 265 262 254 247 242 240 242 245 247 248 247 247 248 244 228 198 198 215 228 237 236 205 164 173 256 314 62 64 56 104 131 125 117 113 110 107 105 103 101 100 97 96 94 92 91 89 88 86 83 82 80 78 76 73 71 69
193 204 204 221 250 229 209 196 198 151 123 259 243 249 263 269 274 305 184 178 176 197 219 212 212 212 214 220 218 219 219 210 192 182 189 201 221 249 264 273 278 279 274 262 252 246 246 248 247 247 247 248 250 249 248 241 215 203 218 228 236 236 201 176 192 204 219 192 134 123 129 144 144 130 123 117 112 110 108 106 105 102 99 96 93 90 87 85 82 79 77 74 72 70 68 65 62
192 154 160 157 196 208 185 149 130 97 104 241 224 241 251 234 216 202 191 188 196 218 219 215 218 215 217 226 230 235 237 237 238 233 235 248 265 273 276 277 276 274 273 271 264 256 251 251 251 250 248 248 250 248 248 246 228 219 235 232 232 231 193 178 197 196 202 209 196 193 175 162 174 159 142 131 124 121 117 113 111 107 104 101 96 92 88 84 82 77 71 66 61 59 54 52 49
241 227 194 197 185 186 165 118 137 129 241 254 244 249 243 202 209 214 209 204 211 228 235 236 235 231 233 238 240 245 253 264 268 267 266 264 264 267 270 269 267 265 267 272 269 260 255 255 257 256 253 250 252 253 255 250 231 231 248 236 229 229 198 184 201 200 198 209 216 216 205 196 205 203 189 174 158 145 136 130 125 113 106 102 95 88 81 74 71 69 66 57 47 40 31 26 25
235 255 235 239 244 226 241 220 163 152 185 243 294 339 69 46 22 259 226 211 204 222 240 240 236 240 247 250 252 256 264 269 267 268 274 270 263 266 273 272 268 266 262 261 263 263 269 274 271 269 261 253 252 248 242 237 225 225 234 226 226 235 217 197 203 208 210 216 221 222 222 226 224 224 232 239 240 229 216 199 170 147 125 112 91 61 35 12 4 1 3 5 1 359 356 353 357
23 320 313 290 250 224 252 234 166 135 146 164 141 344 65 38 29 24 247 217 196 207 226 240 245 248 252 258 261 262 265 265 260 264 274 277 273 272 277 281 281 284 281 275 274 275 296 306 287 261 246 242 240 230 224 227 225 219 218 217 224 234 226 210 208 214 219 221 224 225 230 237 235 228 231 241 255 260 260 263 263 264 267 274 287 305 317 317 314 308 302 303 309 312 316 320 325
2 14 19 6 259 207 178 216 187 147 163 153 141 209 133 48 33 43 128 198 200 216 235 253 262 258 256 258 258 255 256 254 253 257 264 270 276 276 279 284 285 289 292 297 306 307 318 322 271 206 219 231 232 223 221 218 215 214 212 212 223 234 233 226 220 223 227 229 229 229 230 236 240 237 232 236 252 263 263 264 269 274 276 277 284 294 302 304 302 297 290 288 290 290 292 299 303